Weather History for KBVS - July, 2013

Change the Weather History Date:

Thursday, July 4, 2013

  Actual Average Record
Temperature  
Mean Temperature 61 °F -  
Max Temperature 69 °F 70 °F 85 °F (1958)
Min Temperature 53 °F 50 °F 43 °F (1964)
Degree Days  
Heating Degree Days 4    
Growing Degree Days 11 (Base 50)    
Moisture  
Dew Point 56 °F    
Average Humidity 86    
Maximum Humidity 100    
Minimum Humidity 60    
Precipitation  
Precipitation 0.00 in - - ()
Sea Level Pressure  
Sea Level Pressure 30.10 in    
Wind  
Wind Speed 7 mph (South)    
Max Wind Speed 10 mph    
Max Gust Speed 20 mph    
Visibility 10 miles    
Events      
Averages and records for this station are not official NWS values.
T = Trace of Precipitation, MM = Missing Value Source: NWS Daily Summary

Daily Weather History Graph

Daily Weather History Graph

Search for Another Location

Airport or City:

Trip Planner

Search our weather history database for the weather conditions in past years. The results will help you decide how hot, cold, wet, or windy it might be!

Date:

Astronomy

Jul. 04, 2013 Rise Set
Actual Time 5:14 AM PDT 9:13 PM PDT
Civil Twilight 4:33 AM PDT 9:54 PM PDT
Nautical Twilight 3:35 AM PDT 10:52 PM PDT
Astronomical Twilight 1:58 AM PDT 12:27 AM PDT
Moon 2:41 AM PDT (7/4) 6:17 PM PDT (7/4)
Length of Visible Light 17h 21m
Length of Day
15h 59m
Waning Crescent, 11% of the Moon is Illuminated
Jul 4
Waning Crescent
Jul 8
New
Jul 15
First Quarter
Jul 22
Full
Jul 29
Last Quarter

Hourly Weather History & Observations

Time (PDT) Temp. Dew Point Humidity Pressure Visibility Wind Dir Wind Speed Gust Speed Precip Events Conditions
12:15 AM 55.4 °F 55.4 °F 100% 30.10 in 10.0 mi South 6.9 mph - 0.00 in   Clear
12:35 AM 55.4 °F 55.4 °F 100% 30.10 in 10.0 mi SSE 9.2 mph - 0.00 in   Scattered Clouds
12:55 AM 55.4 °F 55.4 °F 100% 30.10 in 10.0 mi SSE 8.1 mph - 0.00 in   Scattered Clouds
1:15 AM 55.4 °F 55.4 °F 100% 30.10 in 10.0 mi South 6.9 mph - 0.00 in   Scattered Clouds
1:35 AM 55.4 °F 55.4 °F 100% 30.10 in 10.0 mi SSE 6.9 mph - 0.00 in   Mostly Cloudy
1:55 AM 55.4 °F 55.4 °F 100% 30.10 in 10.0 mi SSE 8.1 mph - 0.00 in   Overcast
2:15 AM 53.6 °F 53.6 °F 100% 30.10 in 10.0 mi SSE 8.1 mph - 0.00 in   Mostly Cloudy
2:35 AM 53.6 °F 53.6 °F 100% 30.10 in 10.0 mi South 10.4 mph - 0.00 in   Mostly Cloudy
2:55 AM 55.4 °F 55.4 °F 100% 30.10 in 10.0 mi SSE 9.2 mph - 0.00 in   Mostly Cloudy
3:15 AM 55.4 °F 55.4 °F 100% 30.10 in 10.0 mi SSE 5.8 mph - 0.00 in   Mostly Cloudy
3:35 AM 55.4 °F 55.4 °F 100% 30.10 in 10.0 mi SSE 6.9 mph - 0.00 in   Mostly Cloudy
3:55 AM 55.4 °F 55.4 °F 100% 30.10 in 10.0 mi SSE 8.1 mph - 0.00 in   Mostly Cloudy
4:15 AM 55.4 °F 55.4 °F 100% 30.10 in 10.0 mi SSE 10.4 mph - 0.00 in   Overcast
4:35 AM 55.4 °F 55.4 °F 100% 30.10 in 10.0 mi South 10.4 mph - 0.00 in   Overcast
4:55 AM 55.4 °F 55.4 °F 100% 30.10 in 10.0 mi South 8.1 mph - 0.00 in   Overcast
5:15 AM 55.4 °F 55.4 °F 100% 30.10 in 10.0 mi South 8.1 mph - 0.00 in   Overcast
5:35 AM 55.4 °F 55.4 °F 100% 30.11 in 10.0 mi South 6.9 mph - 0.00 in   Overcast
5:55 AM 55.4 °F 55.4 °F 100% 30.11 in 10.0 mi South 6.9 mph - 0.00 in   Overcast
6:15 AM 55.4 °F 55.4 °F 100% 30.11 in 10.0 mi South 6.9 mph - 0.00 in   Mostly Cloudy
6:35 AM 55.4 °F 55.4 °F 100% 30.12 in 10.0 mi South 6.9 mph - 0.00 in   Scattered Clouds
6:55 AM 55.4 °F 55.4 °F 100% 30.12 in 10.0 mi SSE 5.8 mph - 0.00 in   Overcast
7:15 AM 57.2 °F 57.2 °F 100% 30.12 in 10.0 mi South 5.8 mph - 0.00 in   Overcast
7:35 AM 57.2 °F 57.2 °F 100% 30.12 in 10.0 mi South 6.9 mph - 0.00 in   Overcast
7:55 AM 57.2 °F 57.2 °F 100% 30.12 in 10.0 mi SSW 6.9 mph - 0.00 in   Overcast
8:15 AM 57.2 °F 57.2 °F 100% 30.13 in 10.0 mi SSE 8.1 mph - 0.00 in   Overcast
8:35 AM 57.2 °F 57.2 °F 100% 30.13 in 10.0 mi South 5.8 mph - 0.00 in   Overcast
8:55 AM 59.0 °F 57.2 °F 94% 30.13 in 10.0 mi South 8.1 mph - 0.00 in   Overcast
9:15 AM 59.0 °F 57.2 °F 94% 30.13 in 10.0 mi SSW 5.8 mph - 0.00 in   Overcast
9:35 AM 60.8 °F 57.2 °F 88% 30.13 in 10.0 mi SSW 8.1 mph - 0.00 in   Overcast
9:55 AM 60.8 °F 57.2 °F 88% 30.13 in 10.0 mi SW 10.4 mph - 0.00 in   Overcast
10:15 AM 60.8 °F 57.2 °F 88% 30.13 in 10.0 mi South 5.8 mph 19.6 mph 0.00 in   Overcast
10:35 AM 62.6 °F 57.2 °F 82% 30.13 in 10.0 mi South 6.9 mph - 0.00 in   Overcast
10:55 AM 62.6 °F 59.0 °F 88% 30.13 in 10.0 mi South 6.9 mph - 0.00 in   Overcast
11:15 AM 64.4 °F 57.2 °F 77% 30.13 in 10.0 mi SSE 8.1 mph - 0.00 in   Overcast
11:35 AM 62.6 °F 57.2 °F 82% 30.13 in 10.0 mi SSE 9.2 mph - 0.00 in   Overcast
11:55 AM 62.6 °F 57.2 °F 82% 30.13 in 10.0 mi South 8.1 mph - 0.00 in   Overcast
12:15 PM 64.4 °F 59.0 °F 83% 30.13 in 10.0 mi SSE 8.1 mph - 0.00 in   Overcast
12:35 PM 64.4 °F 57.2 °F 77% 30.13 in 10.0 mi SSE 5.8 mph - 0.00 in   Overcast
12:55 PM 66.2 °F 57.2 °F 73% 30.13 in 10.0 mi South 5.8 mph - 0.00 in   Overcast
1:15 PM 66.2 °F 57.2 °F 73% 30.13 in 10.0 mi South 8.1 mph - 0.00 in   Overcast
1:35 PM 66.2 °F 57.2 °F 73% 30.12 in 10.0 mi South 6.9 mph - 0.00 in   Overcast
1:55 PM 66.2 °F 57.2 °F 73% 30.12 in 10.0 mi SSE 6.9 mph - 0.00 in   Overcast
2:15 PM 66.2 °F 57.2 °F 73% 30.11 in 10.0 mi South 6.9 mph - 0.00 in   Overcast
2:35 PM 66.2 °F 57.2 °F 73% 30.11 in 10.0 mi SE 6.9 mph - 0.00 in   Mostly Cloudy
2:55 PM 66.2 °F 57.2 °F 73% 30.11 in 10.0 mi South 4.6 mph - 0.00 in   Overcast
3:15 PM 68.0 °F 59.0 °F 73% 30.10 in 10.0 mi South 8.1 mph - 0.00 in   Overcast
3:35 PM 69.8 °F 59.0 °F 68% 30.10 in 10.0 mi SSW 5.8 mph - 0.00 in   Mostly Cloudy
3:55 PM 69.8 °F 59.0 °F 68% 30.10 in 10.0 mi SSW 9.2 mph - 0.00 in   Mostly Cloudy
4:15 PM 68.0 °F 57.2 °F 68% 30.09 in 10.0 mi SSE 6.9 mph - 0.00 in   Mostly Cloudy
4:35 PM 68.0 °F 57.2 °F 68% 30.09 in 9.0 mi South 8.1 mph - 0.00 in   Overcast
4:55 PM 69.8 °F 57.2 °F 64% 30.08 in 10.0 mi West 4.6 mph - 0.00 in   Mostly Cloudy
5:15 PM 69.8 °F 55.4 °F 60% 30.08 in 10.0 mi SW 8.1 mph - 0.00 in   Partly Cloudy
5:35 PM 68.0 °F 55.4 °F 64% 30.08 in 10.0 mi WSW 5.8 mph - 0.00 in   Clear
5:55 PM 68.0 °F 55.4 °F 64% 30.08 in 10.0 mi SW 8.1 mph - 0.00 in   Clear
6:15 PM 68.0 °F 55.4 °F 64% 30.07 in 10.0 mi WSW 5.8 mph - 0.00 in   Clear
6:35 PM 68.0 °F 55.4 °F 64% 30.07 in 10.0 mi SSW 9.2 mph - 0.00 in   Clear
6:55 PM 66.2 °F 55.4 °F 68% 30.06 in 10.0 mi WSW 6.9 mph - 0.00 in   Clear
7:35 PM 64.4 °F 55.4 °F 73% 30.06 in 10.0 mi SW 10.4 mph - 0.00 in   Clear
7:55 PM 64.4 °F 55.4 °F 73% 30.06 in 10.0 mi SW 3.5 mph - 0.00 in   Clear
8:15 PM 64.4 °F 55.4 °F 73% 30.06 in 10.0 mi WSW 3.5 mph - 0.00 in   Clear
8:35 PM 62.6 °F 55.4 °F 77% 30.06 in 10.0 mi Calm Calm - 0.00 in   Clear
8:55 PM 62.6 °F 55.4 °F 77% 30.06 in 10.0 mi SW 3.5 mph - 0.00 in   Clear
9:15 PM 60.8 °F 53.6 °F 77% 30.06 in 10.0 mi SW 5.8 mph - 0.00 in   Clear
9:35 PM 59.0 °F 53.6 °F 82% 30.06 in 10.0 mi SW 5.8 mph - 0.00 in   Clear
9:55 PM 57.2 °F 53.6 °F 88% 30.07 in 10.0 mi SSW 4.6 mph - 0.00 in   Clear
10:15 PM 57.2 °F 53.6 °F 88% 30.07 in 10.0 mi SSW 5.8 mph - 0.00 in   Clear
10:35 PM 55.4 °F 55.4 °F 100% 30.07 in 10.0 mi Calm Calm - 0.00 in   Clear
10:55 PM 53.6 °F 53.6 °F 100% 30.07 in 10.0 mi Calm Calm - 0.00 in   Clear
11:15 PM 55.4 °F 55.4 °F 100% 30.07 in 10.0 mi Calm Calm - 0.00 in   Clear
11:35 PM 53.6 °F 53.6 °F 100% 30.06 in 10.0 mi Calm Calm - 0.00 in   Clear
11:55 PM 53.6 °F 53.6 °F 100% 30.06 in 10.0 mi SE 3.5 mph - 0.00 in   Clear